Regional Weather Roundup
Issued by NWS Columbia, SC

Home | Current Version | Previous Version | Text Only | Print | Product List | Glossary On
Versions: 1 2 3 4 5 6 7 8 9 10 11 12 13 14 15 16 17 18 19 20 21 22 23 24 25 26 27 28 29 30 31 32 33 34 35 36 37 38 39 40 41 42 43 44 45 46 47 48 49 50
000
ASUS42 KCAE 231710
RWRCAE
REGIONAL WEATHER ROUNDUP
NATIONAL WEATHER SERVICE COLUMBIA SC
1200 PM EST SUN NOV 23 2014

NOTE: "FAIR" INDICATES FEW OR NO CLOUDS BELOW 12,000 FEET WITH NO
SIGNIFICANT WEATHER AND/OR OBSTRUCTIONS TO VISIBILITY.

NOT ALL STATIONS ARE QUALITY CONTROLLED BY THE NATIONAL
WEATHER SERVICE. USE DATA WITH CAUTION...ESPECIALLY
DEWPOINT OBSERVATIONS.

SCZ001>056-GAZ040-063>065-077-231800-
...UPSTATE SOUTH CAROLINA...

CITY           SKY/WX    TMP DP  RH WIND       PRES   REMARKS
ANDERSON       HVY RAIN  46  44  93 N12       30.02F FOG
LIBERTY        RAIN      46  46 100 MISG      30.07F
SPARTANBURG    RAIN      45 N/A N/A N7        30.09F
CLEMSON        HVY RAIN  47  44  90 NE12      30.04F FOG
GREENVILLE     HVY RAIN  45  42  89 NE12      30.07F FOG
GREENWOOD      RAIN      50  48  93 NE12G17   30.02F FOG
GREER          RAIN      44  43  96 N9        30.06F FOG
ROCK HILL      LGT RAIN  48  47  96 NE3       30.09F FOG
CHESTER        RAIN      52  50  93 NE8       30.08F
LAURENS        HVY RAIN N/A N/A N/A NE8       30.06F


...CENTRAL SOUTH CAROLINA...

CITY           SKY/WX    TMP DP  RH WIND       PRES   REMARKS
COLUMBIA APT   HVY RAIN  56  54  93 E8        30.04F FOG
COLUMBIA OWENS HVY RAIN  55  53  93 CALM      30.07F FOG
DARLINGTON     CLOUDY    55  52  88 E7        30.08F
FLORENCE       LGT RAIN  61  58  90 E9        30.07F
MCENTIRE ANGB  RAIN      55  55 100 NE7       30.04F FOG
ORANGEBURG     LGT RAIN  60  57  89 E7        30.03F FOG
SUMTER SHAW    LGT RAIN  57  57 100 VRB6G21   30.02F FOG
NEWBERRY       RAIN      50 N/A N/A E7        30.07F
AIKEN          RAIN      55  55 100 E8G16     30.05F
BARNWELL         N/A     59  59 100 E10       30.02F
CAMDEN         LGT RAIN  54  54 100 NE6       30.06F
LANCASTER      RAIN      50  50 100 NE6       30.10F
WINNSBORO      RAIN      52  52 100 NE8       30.03F


...EASTERN AND COASTAL SOUTH CAROLINA...

CITY           SKY/WX    TMP DP  RH WIND       PRES   REMARKS
MYRTLE BEACH   LGT RAIN  61  57  88 E15G22    30.08F
N MYRTLE BCH   LGT RAIN  61  58  90 E14       30.08F
CONWAY         LGT RAIN  61  61 100 E8        30.06F
MARION         LGT RAIN  61  59  94 E5        30.06F
FLORENCE       LGT RAIN  61  58  90 E9        30.07F
DARLINGTON     CLOUDY    55  52  88 E7        30.08F
CHARLESTON APT LGT RAIN  64  63  94 E13       30.03F
MOUNT PLEASANT CLOUDY    63  63 100 E7        30.04F
WALTERBORO     RAIN      64 N/A N/A E9        30.03F
BEAUFORT       RAIN      64  62  93 E8        30.01F FOG


...EASTERN GEORGIA...

CITY           SKY/WX    TMP DP  RH WIND       PRES   REMARKS
AUGUSTA BUSH F LGT RAIN  58  57  97 E7        29.99F FOG
AUGUSTA DANIEL LGT RAIN  58  56  93 E12       29.99F FOG
THOMSON        CLOUDY    59  59 100 E3        30.03F
WASHINGTON     RAIN      55 N/A N/A E6        29.98F
CLAXTON        LGT RAIN  64  64 100 E6        29.97F
SYLVANIA       LGT RAIN  62  61  97 SE10G16   30.00F
STATESBORO     HVY RAIN  62  62 100 E5        29.98F
SAVANNAH       LGT RAIN  66  63  90 VRB5      30.00F VSB 1


...SOUTHERN NORTH CAROLINA...

CITY           SKY/WX    TMP DP  RH WIND       PRES   REMARKS
CHARLOTTE      LGT RAIN  48  45  87 NE8       30.09F FOG
MONROE         LGT RAIN  49  47  93 NE7       30.08F FOG
WADESBORO      CLOUDY    48  47  96 NE6       30.11F FOG
ROCKINGHAM     RAIN      48  48  98 NE5       30.11F
RUTHERFORDTON  LGT RAIN  41  40  96 N7        30.12F
ASHEVILLE      LGT RAIN  45  43  93 S6        30.08F FOG

$$


USA.gov is the U.S. government's official web portal to all federal, state and local government web resources and services.